Waterford Township, MI

7:06 PM EST on February 08, 2016 (GMT -0500)
Oakland County International

Weather History for KPTK - February, 2013

Change the Weather History Date:

Saturday, February 16, 2013

  Actual Average Record
Temperature  
Mean Temperature 18 °F -  
Max Temperature 23 °F 32 °F 54 °F (2006)
Min Temperature 12 °F 18 °F -16 °F (2015)
Degree Days  
Heating Degree Days 48    
Moisture  
Dew Point 13 °F    
Average Humidity 78    
Maximum Humidity 92    
Minimum Humidity 60    
Precipitation  
Precipitation 0.00 in - - ()
Snow  
Snow 0.00 in - - ()
Snow Depth 1.00 in    
Sea Level Pressure  
Sea Level Pressure 30.00 in    
Wind  
Wind Speed 5 mph (WNW)    
Max Wind Speed 17 mph    
Max Gust Speed -    
Visibility 6 miles    
Events Snow    
Averages and records for this station are not official NWS values.
T = Trace of Precipitation, MM = Missing Value Source: NWS Daily Summary

Daily Weather History Graph

Daily Weather History Graph

Search for Another Location

Airport or City:

Trip Planner

Search our weather history database for the weather conditions in past years. The results will help you decide how hot, cold, wet, or windy it might be!

Date:

Astronomy

Feb. 16, 2013 Rise Set
Actual Time 7:28 AM EST 6:07 PM EST
Civil Twilight 7:00 AM EST 6:36 PM EST
Nautical Twilight 6:27 AM EST 7:09 PM EST
Astronomical Twilight 5:54 AM EST 7:41 PM EST
Moon 10:31 AM EST (2/16) 12:15 AM EST (2/16)
Length of Visible Light 11h 36m
Length of Day
10h 38m
Waxing Crescent, 39% of the Moon is Illuminated
Feb 16
Waxing Crescent
Feb 17
First Quarter
Feb 25
Full
Mar 4
Last Quarter
Mar 11
New

Hourly Weather History & Observations

Time (EST) Temp. Windchill Dew Point Humidity Pressure Visibility Wind Dir Wind Speed Gust Speed Precip Events Conditions
12:53 AM 18.0 °F 9.8 °F 10.0 °F 71% 30.10 in 10.0 mi NW 5.8 mph - N/A   Partly Cloudy
1:53 AM 17.1 °F 11.7 °F 10.0 °F 74% 30.09 in 10.0 mi WNW 3.5 mph - N/A   Clear
2:53 AM 17.1 °F - 10.0 °F 74% 30.08 in 10.0 mi Calm Calm - N/A   Clear
3:53 AM 15.1 °F - 9.0 °F 77% 30.06 in 10.0 mi Calm Calm - N/A   Clear
4:53 AM 14.0 °F 8.2 °F 10.0 °F 84% 30.06 in 10.0 mi West 3.5 mph - N/A   Mostly Cloudy
5:53 AM 16.0 °F - 12.0 °F 84% 30.06 in 10.0 mi Calm Calm - N/A   Mostly Cloudy
6:53 AM 17.1 °F - 12.0 °F 81% 30.04 in 10.0 mi Calm Calm - N/A   Mostly Cloudy
7:53 AM 17.1 °F - 12.9 °F 84% 30.04 in 10.0 mi Calm Calm - N/A   Mostly Cloudy
8:53 AM 18.0 °F - 12.9 °F 81% 30.04 in 10.0 mi Calm Calm - N/A   Mostly Cloudy
9:53 AM 19.9 °F 12.1 °F 14.0 °F 78% 30.04 in 10.0 mi WSW 5.8 mph - N/A   Overcast
10:53 AM 21.9 °F 14.5 °F 12.0 °F 66% 30.03 in 10.0 mi West 5.8 mph - N/A   Mostly Cloudy
11:53 AM 23.0 °F 18.4 °F 10.9 °F 60% 30.02 in 10.0 mi Variable 3.5 mph - N/A   Mostly Cloudy
12:33 PM 23.0 °F - 12.2 °F 63% 29.96 in 4.0 mi Calm Calm - 0.00 in Snow Light Snow
12:36 PM 23.0 °F - 12.2 °F 63% 29.96 in 2.0 mi Calm Calm - 0.00 in Snow Light Snow
12:48 PM 21.2 °F 12.6 °F 15.8 °F 80% 29.96 in 1.8 mi West 6.9 mph - 0.00 in Snow Light Snow
12:53 PM 21.9 °F 13.4 °F 16.0 °F 78% 30.01 in 1.2 mi West 6.9 mph - 0.00 in Snow Light Snow
1:00 PM 21.2 °F 12.6 °F 17.6 °F 86% 29.96 in 0.5 mi West 6.9 mph - 0.00 in Snow Snow
1:15 PM 21.2 °F 12.6 °F 17.6 °F 86% 29.95 in 1.0 mi WNW 6.9 mph - 0.00 in Snow Light Snow
1:19 PM 21.2 °F 16.4 °F 17.6 °F 86% 29.95 in 2.0 mi WNW 3.5 mph - 0.00 in Snow Light Snow
1:26 PM 21.2 °F 11.7 °F 15.8 °F 80% 29.95 in 4.0 mi West 8.1 mph - 0.00 in Snow Light Snow
1:35 PM 23.0 °F 17.0 °F 15.8 °F 74% 29.94 in 9.0 mi West 4.6 mph - 0.00 in Snow Light Snow
1:53 PM 23.0 °F 12.4 °F 14.0 °F 68% 29.99 in 6.0 mi West 10.4 mph - 0.00 in Snow Light Snow
1:57 PM 23.0 °F 9.2 °F 15.8 °F 74% 29.95 in 1.8 mi WNW 17.3 mph - 0.00 in Snow Light Snow
2:04 PM 21.2 °F 9.5 °F 17.6 °F 86% 29.95 in 0.8 mi WNW 11.5 mph - 0.00 in Snow Light Snow
2:20 PM 21.2 °F 12.6 °F 17.6 °F 86% 29.94 in 0.8 mi NW 6.9 mph - 0.00 in Snow Light Snow
2:37 PM 21.2 °F 14.9 °F 15.8 °F 80% 29.94 in 2.0 mi NNW 4.6 mph - 0.00 in Snow Light Snow
2:46 PM 21.2 °F 16.4 °F 15.8 °F 80% 29.94 in 3.0 mi NNW 3.5 mph - 0.00 in Snow Light Snow
2:53 PM 21.9 °F - 17.1 °F 82% 29.98 in 5.0 mi Calm Calm - 0.00 in Snow Light Snow
3:00 PM 23.0 °F 13.9 °F 15.8 °F 74% 29.94 in 2.0 mi NW 8.1 mph - 0.00 in Snow Light Snow
3:07 PM 21.2 °F 10.9 °F 15.8 °F 80% 29.94 in 1.2 mi NW 9.2 mph - 0.00 in Snow Light Snow
3:15 PM 21.2 °F 10.9 °F 15.8 °F 80% 29.93 in 4.0 mi West 9.2 mph - 0.00 in Snow Light Snow
3:45 PM 21.2 °F 8.3 °F 14.0 °F 74% 29.94 in 1.8 mi NW 13.8 mph - 0.00 in Snow Light Snow
3:53 PM 21.9 °F 9.8 °F 16.0 °F 78% 29.99 in 1.0 mi WNW 12.7 mph - 0.00 in Snow Light Snow
4:01 PM 21.2 °F 8.9 °F 15.8 °F 80% 29.95 in 0.8 mi NW 12.7 mph - 0.00 in Snow Light Snow
4:17 PM 21.2 °F 11.7 °F 15.8 °F 80% 29.95 in 1.5 mi NW 8.1 mph - 0.00 in Snow Light Snow
4:38 PM 21.2 °F 10.9 °F 12.2 °F 68% 29.95 in 7.0 mi NW 9.2 mph - 0.00 in   Overcast
4:53 PM 21.9 °F 8.7 °F 10.9 °F 63% 30.01 in 10.0 mi NW 15.0 mph - 0.00 in   Mostly Cloudy
5:53 PM 19.9 °F 9.3 °F 9.0 °F 62% 30.02 in 10.0 mi WNW 9.2 mph - 0.00 in   Mostly Cloudy
6:53 PM 18.0 °F 9.8 °F 10.0 °F 71% 30.04 in 10.0 mi WNW 5.8 mph - N/A   Mostly Cloudy
7:53 PM 16.0 °F 6.3 °F 10.0 °F 77% 30.05 in 10.0 mi WNW 6.9 mph - N/A   Scattered Clouds
8:53 PM 14.0 °F 5.1 °F 9.0 °F 80% 30.06 in 10.0 mi WNW 5.8 mph - N/A   Scattered Clouds
9:27 PM 15.8 °F 7.2 °F 10.4 °F 79% 30.01 in 2.0 mi WNW 5.8 mph - 0.00 in Snow Light Snow
9:42 PM 15.8 °F 6.1 °F 12.2 °F 86% 30.01 in 6.0 mi NW 6.9 mph - 0.00 in Snow Light Snow
9:53 PM 14.0 °F 5.1 °F 10.9 °F 88% 30.06 in 7.0 mi WNW 5.8 mph - 0.00 in   Mostly Cloudy
10:43 PM 12.2 °F 1.7 °F 10.4 °F 92% 30.01 in 8.0 mi WNW 6.9 mph - 0.00 in   Overcast
10:53 PM 12.9 °F 3.8 °F 10.0 °F 88% 30.06 in 10.0 mi WNW 5.8 mph - 0.00 in   Overcast
11:02 PM 12.2 °F 4.3 °F 10.4 °F 92% 30.01 in 10.0 mi NW 4.6 mph - N/A   Scattered Clouds
11:30 PM 14.0 °F 6.5 °F 10.4 °F 86% 30.00 in 2.5 mi NW 4.6 mph - 0.00 in Snow Light Snow
11:48 PM 15.8 °F 8.6 °F 12.2 °F 86% 30.00 in 1.8 mi WNW 4.6 mph - 0.00 in Snow Light Snow
11:53 PM 15.1 °F 7.7 °F 12.0 °F 88% 30.05 in 1.2 mi WNW 4.6 mph - 0.00 in Snow Light Snow